Laramie, WY

4:03 AM MST on November 21, 2017 (GMT -0700)
Laramie Regional

Weather History for KLAR - November, 2011

Change the Weather History Date:

Tuesday, November 15, 2011

  Actual Average Record
Temperature  
Mean Temperature 30 °F 30 °F  
Max Temperature 37 °F 41 °F 70 °F (1999)
Min Temperature 23 °F 18 °F -15 °F (2014)
Degree Days  
Heating Degree Days 35 36  
Month to date heating degree days 559 484  
Since 1 July heating degree days 1589 1727  
Cooling Degree Days 0 0  
Month to date cooling degree days 0 0  
Year to date cooling degree days 126 67  
Moisture  
Dew Point 9 °F    
Average Humidity 42    
Maximum Humidity 55    
Minimum Humidity 29    
Precipitation  
Precipitation 0.00 in 0.02 in 0.77 in (1987)
Month to date precipitation 0.23 0.30  
Year to date precipitation 10.18 10.36  
Sea Level Pressure  
Sea Level Pressure 29.80 in    
Wind  
Wind Speed 29 mph (West)    
Max Wind Speed 49 mph    
Max Gust Speed 59 mph    
Visibility 10 miles    
Events      
T = Trace of Precipitation, MM = Missing Value Source: NWS Daily Summary

Daily Weather History Graph

Daily Weather History Graph

Search for Another Location

Airport or City:

Trip Planner

Search our weather history database for the weather conditions in past years. The results will help you decide how hot, cold, wet, or windy it might be!

Date:

Astronomy

Nov. 15, 2011 Rise Set
Actual Time 6:50 AM MST 4:43 PM MST
Civil Twilight 6:21 AM MST 5:13 PM MST
Nautical Twilight 5:47 AM MST 5:46 PM MST
Astronomical Twilight 5:14 AM MST 6:19 PM MST
Moon 8:55 PM MST (11/15) 10:52 AM MST (11/15)
Length of Visible Light 10h 52m
Length of Day
9h 52m
Waning Gibbous, 78% of the Moon is Illuminated
Nov 15
Waning Gibbous
Nov 18
Last Quarter
Nov 24
New
Dec 2
First Quarter
Dec 10
Full

Hourly Weather History & Observations

Time (MST) Temp. Windchill Dew Point Humidity Pressure Visibility Wind Dir Wind Speed Gust Speed Precip Events Conditions
12:53 AM 34.0 °F 18.4 °F 6.1 °F 31% 29.57 in 10.0 mi West 41.4 mph 58.7 mph N/A   Scattered Clouds
1:53 AM 33.1 °F 17.8 °F 7.0 °F 34% 29.61 in 10.0 mi West 36.8 mph 56.4 mph N/A   Scattered Clouds
2:53 AM 32.0 °F 15.8 °F 9.0 °F 38% 29.61 in 10.0 mi West 40.3 mph 57.5 mph N/A   Mostly Cloudy
3:53 AM 30.9 °F 14.9 °F 10.0 °F 42% 29.66 in 10.0 mi West 36.8 mph 43.7 mph N/A   Partly Cloudy
4:53 AM 30.2 °F 13.5 °F 8.6 °F 40% 29.72 in 10.0 mi West 39.1 mph 51.8 mph N/A   Mostly Cloudy
5:53 AM 32.0 °F 15.4 °F 6.8 °F 35% 29.73 in 10.0 mi West 42.6 mph 52.9 mph N/A   Overcast
6:53 AM 30.9 °F 14.9 °F 9.0 °F 40% 29.74 in 10.0 mi West 36.8 mph 50.6 mph N/A   Overcast
7:53 AM 30.9 °F 15.9 °F 9.0 °F 40% 29.76 in 10.0 mi West 31.1 mph 43.7 mph N/A   Overcast
8:53 AM 30.0 °F 14.5 °F 15.1 °F 54% 29.80 in 10.0 mi West 32.2 mph 43.7 mph N/A   Scattered Clouds
9:53 AM 32.0 °F 17.4 °F 12.9 °F 45% 29.82 in 10.0 mi West 31.1 mph 41.4 mph N/A   Clear
10:53 AM 30.9 °F 15.9 °F 10.9 °F 43% 29.83 in 10.0 mi West 31.1 mph 42.6 mph N/A   Partly Cloudy
11:53 AM 33.1 °F 17.5 °F 10.9 °F 40% 29.80 in 10.0 mi West 39.1 mph 44.9 mph N/A   Clear
12:53 PM 37.0 °F 23.5 °F 9.0 °F 31% 29.77 in 10.0 mi West 35.7 mph 42.6 mph N/A   Clear
1:53 PM 36.0 °F 23.2 °F 8.1 °F 31% 29.78 in 10.0 mi West 28.8 mph 41.4 mph N/A   Clear
2:53 PM 36.0 °F 23.7 °F 7.0 °F 30% 29.78 in 10.0 mi WSW 26.5 mph 33.4 mph N/A   Clear
3:53 PM 34.0 °F 21.3 °F 7.0 °F 32% 29.82 in 10.0 mi WSW 25.3 mph - N/A   Clear
4:53 PM 30.0 °F 16.6 °F 9.0 °F 41% 29.85 in 10.0 mi WSW 23.0 mph - N/A   Clear
5:53 PM 28.9 °F 16.5 °F 12.0 °F 49% 29.86 in 10.0 mi WSW 18.4 mph - N/A   Clear
6:53 PM 25.0 °F 15.5 °F 10.0 °F 53% 29.92 in 10.0 mi West 9.2 mph - N/A   Clear
7:53 PM 26.1 °F 11.6 °F 8.1 °F 47% 29.94 in 10.0 mi West 21.9 mph - N/A   Clear
8:53 PM 26.1 °F 13.6 °F 9.0 °F 49% 29.95 in 10.0 mi West 16.1 mph 26.5 mph N/A   Clear
9:53 PM 25.0 °F 10.9 °F 10.9 °F 55% 29.96 in 10.0 mi WSW 19.6 mph - N/A   Clear
10:53 PM 24.1 °F 9.4 °F 9.0 °F 53% 29.97 in 10.0 mi West 20.7 mph - N/A   Clear
11:53 PM 23.0 °F 8.7 °F 10.0 °F 58% 29.98 in 10.0 mi West 18.4 mph - N/A   Clear